STARLINK-32786 (62528 NORAD) Tracking and Keplerian Element Data

This shows tracking and keplerian element data for the satellite.

Feedback or suggestion? Click here.




ElementValue
Catalog62528
NameSTARLINK-32786
Epoch Orbit542
Epoch Day35.16668981
Epoch Year2025
RAAN315.7821
Inclination42.9992
Eccentricity0.0001313
Argument of Perigee268.1055
Mean Anonmoly285.969
Mean Motion15.48492001
Decay Rate-0.01480414
L11 62528U 25004T 25035.16668981 -.01480414 00000+0 -29972-1 0 9997
L22 62528 42.9992 315.7821 0001313 268.1055 285.9690 15.48492001 5426



Live tracking and technical data element details for STARLINK-32786 (NORAD 62528). STARLINK-32786 can be tracked NOW for your location showing map with azimuth and elevation plus other details from your city location.







IsCatalogInMostPopularTable: catalog: 62528, numindb: 24
Update: records affected: 1



GetName: 62528 STARLINK-32786

Hit Count: updated at: Mon, 19 May 2025 01:44:06 GMT